DMSP 5D-2 F13 DEB, 40676

Orbit data source: Space-Track

DMSP 5D-2 F13 DEB, 40676 is space debris in SSO originally from a launch on Fri, 24 Mar 1995 UTC launched from the Air Force Western Test Range (AFWTR). Debris objects in space refer to the collection of defunct objects orbiting the Earth. Examples of debris include non-operational satellites, rocket bodies, and fragments generated from explosions, collisions, or faulty payload assembly.

Loading next visibility...
Identifier
40676, 1995-015FQ
Orbit
SSO
Country
Flag of USUS
Related business
Manufacturer
Unknown
Mission
Spacecraft
Bus & Motor
Unknown
Mass
Unknown
Launch date (UTC)
1995-03-24 (31 years ago)
Launch vehicle
Unknown
Launch site
Air Force Western Test Range (AFWTR)
Object type
Payload
Rocket body
Debris
Shape & HBR
Unknown shape, 0.1 m
Radar Cross Section
Small (<0.1 m²)

Expand to show TLE details & history
Last TLE update: 3 days ago

TLE from 3 days ago
0 DMSP 5D-2 F13 DEB
1 40676U 95015FQ  26253.35667000  .00003028  00000-0  94246-3 0  9999
2 40676  98.6795 294.7953 0006753 121.1760 239.0091 14.41692681588677
Epoch: 2026-09-10T08:33Z
TLE epoch observation values (Epoch: 2026-09-10T08:33:36.287Z)
Latitude
-0.00003°
Longitude
176.99856°
Altitude
758.339 km
Speed
7.474 km/s
True Right ascension
19h 39m 10s
True Declination
0° 00' 00"
Sunlit
Object was in full shadow at epoch
Visualization orbit readout
Latitude
Unknown
Longitude
Unknown
Altitude
Unknown
Speed
Unknown
Apparent Right ascension
Unknown
Apparent Declination
Unknown
Sunlit
N/A
Visualization observer readout
Local Sidereal Time
14:18:27
Azimuth
Unknown
Elevation
Unknown
Doppler factor
Unknown
Orbital elements
Apogee altitude
754.853 km
Perigee altitude
745.226 km
Semi-major axis
7,128.177 km
Eccentricity
0.00068
Inclination
98.6795°
RAAN
294.7953°
Arg. of periapsis
121.176°
True anomaly
238.94279°
Mean anomaly
239.0091°
Eccentric anomaly
238.97594°
Mean motion
3.60641 °/min
Orbital period
99.82 mins
BSTAR
0.00094246
Loading maneuver chart data...
Computing Atmospheric mass density...

Documentation

Showing up to 5 results
|